User: anonymous   Login
Location: Unspecified
(0.0000°N, 0.0000°E)
Time: 23:24:09
(UTC+02:00)
Language:

NOAA 12 - Orbit

View from above orbital plane
View from above orbital plane
View from above satellite
View from above satellite

Ground track
Ground track

The orbit data is extracted from the following two-line orbital elements,

1 21263U 91032A   15181.50475928 -.00000013  00000-0  12816-4 0  9992
2 21263 098.6288 208.2529 0013098 211.9714 310.3360 14.25766108254468
Epoch (UTC): 30 June 2015 12:06:51
Eccentricity: 0.0013098
inclination: 98.6288°
perigee height: 796 km
apogee height: 815 km
right ascension of ascending node: 208.2529°
argument of perigee: 211.9714°
revolutions per day: 14.25766108
mean anomaly at epoch: 310.3360°
orbit number at epoch: 25446

The dashed part of the orbit path shows where the satellite is in the earth's shadow,  

DLR